Location: Courçay
(47.2523°N, 0.8761°E)
Time: 20:15:54
(UTC+00:00)

Okean 1 Rocket - Pass Details

Date: 18 November 2025
Orbit: 599 x 628 km, 82.5° (Epoch: 04 December)

Event Time Altitude Azimuth Distance (km) Brightness Sun altitude
Rises 18:00:04 0° 173° (S) 2,888 6.5 -17.2°
Reaches altitude 10° 18:02:20 10° 168° (SSE) 1,982 5.6 -17.5°
Maximum altitude 18:06:34 49° 94° (E) 800 3.2 -18.2°
Enters shadow 18:08:23 30° 37° (NE) 1,117 4.0 -18.6°
